Location: downtown San Diego
(32.7310°N, 117.1990°W)
Time: 14:01:28
(UTC-08:00)

H-2A R/B - Pass Details

Date: 12 July 2018
Orbit: 734 x 837 km, 98.3° (Epoch: 11 November)

Event Time Altitude Azimuth Distance (km) Brightness Sun altitude
Exits shadow 21:10:02 19° 126° (SE) 1,877 3.4 -13.5°
Maximum altitude 21:13:16 36° 71° (ENE) 1,289 2.9 -14.1°
Drops below altitude 10° 21:18:12 10° 6° (N) 2,448 5.0 -14.9°
Sets 21:20:43 0° 358° (N) 3,379 6.0 -15.3°
